Terminal Aerodrome Forecast
Issued by NWS

Home | Current Version | Previous Version | Text Only | Print | Product List | Glossary On
Versions: 1 2 3 4 5 6 7 8 9 10 11 12 13
000
FTUS44 KLZK 040534
TAFBPK
TAF
KBPK 040534Z 0406/0506 VRB03KT P6SM BKN250
     FM041500 19005KT P6SM FEW050 SCT250
     FM050000 VRB03KT P6SM BKN250=

USA.gov is the U.S. government's official web portal to all federal, state and local government web resources and services.